Find Starlink 31088

NORAD ID: 58604 Int'l Des: 2023-200 Owner: SPXS Country: US Constellation: starlink operational
LEOCIRCULAR

Live Position

Loading 3D Globe...

About Starlink 31088

Description loading...

Upcoming Passes

Passes for default location (London). Set your location on the main map for personalized predictions.

Altitude History

Loading altitude history...

Two-Line Element Set

1 58604U 23200R 26110.21787530 .00000989 00000-0 45457-4 0 9998
2 58604 43.0016 294.1707 0001309 275.7056 84.3647 15.27577935129964
Epoch: Apr 20, 2026 • Age: 17 hours

Current Status

Altitude 486.9 km
Velocity 7.62 km/s
Sub-Earth Point -20.15°S, 82.69°E
Launch Date Dec 19, 2023
Age 2.3 years
Type internet

Technical Details

Classification Payload
Mass 730.00 kg
Dry Mass 700.00 kg
Total Mass 730.00 kg
Length 0.30 m
Diameter 4.10 m
Span 29.00 m
Shape Box + pan
Manufacturer SPXS
Bus Type Starlink V2M
Phase Status In Orbit
Owner/State SPXS/US

Most Searched